[[{"header":{"parameterUnit":"m.s-1","parameterCategory":1,"la1":30.2991,"la2":30.254,"lo1":-89.0895,"lo2":-89.0444,"dy":0.0017,"dx":0.0017,"nx":28,"ny":28,"refTime":"2024-08-30T03:00:00:Z","depth":0,"parameterNumber":2,"parameterNumberName":"U-component_of_WINDS"},"data":[0,0,0,0,0,0,0,0,0,0,0,0,0,0,0,0,0,0,0,0,0,0,0,0,0,0,0,0,0,0,0,0,0,0,0,0,0,0,0,0,0,0,0,0,0,0,0,0,0,0,0,0,0,0,0,0,0,0,-4.0045,-4.0047,0,-4.0212,-4.0214,-4.0216,-4.0215,-4.0213,-4.0211,-4.0209,-4.0381,-4.0387,-4.0394,0,0,0,0,0,0,0,0,0,0,0,0,0,-3.973,-3.9735,-4.0045,-4.0047,-4.0049,-4.0212,-4.0214,-4.0216,-4.0216,-4.0213,-4.021,-4.0208,-4.0379,-4.0387,-4.0394,0,0,0,0,0,0,0,0,0,0,0,0,0,-3.9879,-3.9737,-4.0045,-4.0068,-4.0072,-4.0211,-4.0214,-4.0217,-4.0216,-4.0213,-4.021,-4.0207,-4.0376,-4.0386,-4.0396,-4.0522,0,0,-4.0426,-4.043,0,0,0,0,0,0,0,0,-3.987,-3.989,-4.0063,-4.0067,-4.0072,-4.0189,-4.0166,-4.0319,-4.0217,-4.0162,-4.0209,-4.0205,-4.032,-4.0334,-4.0373,-4.053,-4.0538,-4.0427,-4.0433,-4.0437,-4.044,0,0,0,0,0,0,0,-3.986,-3.9883,-4.0111,-4.0065,-4.0071,-4.0072,-4.009,-4.0195,-4.0257,-4.0166,-4.0167,-4.0186,-4.0322,-4.0363,-4.0377,-4.054,-4.0426,-4.0435,-4.0441,-4.0445,-4.0811,-4.0815,0,0,0,0,0,0,-3.9844,-3.9874,-4.0106,-4.0116,-3.9961,-4.008,-4.01,-4.0155,-4.0256,-4.0268,-4.0189,-4.0186,-4.0348,-4.0365,-4.0383,-4.0536,-4.0437,-4.0446,-4.0452,-4.0807,-4.0812,-4.0816,0,0,0,0,0,0,-3.9837,-3.9865,-4.0099,-3.9995,-4.0025,-4.0089,-4.0151,-4.016,-4.0201,-4.0273,-4.0284,-4.0219,-4.0346,-4.0369,-4.0488,-4.0542,-4.0451,-4.046,-4.0803,-4.0809,-4.0814,-4.0844,0,0,0,0,0,0,-3.9828,-3.9862,-3.991,-3.9996,-4.0031,-4.0199,-4.0154,-4.0166,-4.0218,-4.0215,-4.0305,-4.0316,-4.0345,-4.0473,-4.0497,-4.0554,-4.0467,-4.0798,-4.0805,-4.0812,-4.0839,-4.085,-4.086,0,0,0,0,0,-3.9817,-3.9912,-3.9912,-3.994,-4.0091,-4.0203,-4.0222,-4.0253,-4.0223,-4.0271,-4.0318,-4.0314,-4.0534,-4.0485,-4.0513,-4.0573,-4.0795,-4.0803,-4.0811,-4.0834,-4.0848,-4.086,0,0,0,0,0,0,-3.9828,-3.9923,-3.9924,-4.005,-4.0118,-4.0202,-4.0264,-4.0267,-4.0346,-4.034,-4.0376,-4.0396,-4.0514,-4.0557,-4.0501,-4.0702,-4.0661,-4.0675,-4.0668,-4.0682,-4.0693,-4.0678,-4.0476,0,0,0,0,0,-3.9846,-3.9928,-4.0007,-4.011,-4.0144,-4.0199,-4.0248,-4.0267,-4.0339,-4.0368,-4.0423,-4.0494,-4.0579,-4.0634,-4.0717,-4.0848,-4.0866,-4.0904,-4.0914,-4.0923,-4.0933,-4.1005,-4.1022,-4.0844,-4.0844,-4.0843,0,0,-3.9882,-3.9944,-3.9993,-4.0114,-4.0169,-4.0253,-4.0223,-4.0313,-4.0376,-4.0382,-4.0495,-4.054,-4.0622,-4.0747,-4.0805,-4.0786,-4.0988,-4.0934,-4.094,-4.0946,-4.1015,-4.1032,-4.1047,-4.0849,-4.0848,-4.0847,0,0,-3.9989,-4.0045,-4.0136,-4.0194,-4.0278,-4.0314,-4.0337,-4.0422,-4.0451,-4.0567,-4.0573,-4.0651,-4.0797,-4.0854,-4.0903,-4.1039,-4.1037,-4.1066,-4.112,-4.1189,-4.1203,-4.1216,-4.1261,-4.1277,-4.1077,-4.1077,-4.1077,0,-4.0022,-4.0148,-4.0183,-4.0274,-4.0327,-4.0339,-4.0432,-4.0486,-4.0593,-4.063,-4.0609,-4.0793,-4.085,-4.0988,-4.1021,-4.1062,-4.1088,-4.1052,-4.1199,-4.1211,-4.1224,-4.1267,-4.1285,-4.1079,-4.1079,-4.1079,-4.1079,0,-4.0184,-4.0273,-4.0337,-4.044,-4.0502,-4.0594,-4.0643,-4.0702,-4.0718,-4.0757,-4.0876,-4.0945,-4.1041,-4.1077,-4.1093,-4.1219,-4.1204,-4.1191,-4.1149,-4.1242,-4.1284,-4.1301,-4.1083,-4.1082,-4.1081,-4.1081,0,0,-4.0295,-4.0421,-4.0443,-4.0491,-4.0588,-4.0657,-4.0752,-4.0847,-4.0895,-4.0972,-4.105,-4.1176,-4.1165,-4.122,-4.1244,-4.1306,-4.1406,-4.1285,-4.1287,-4.1301,-4.1547,-4.1552,-4.1571,-4.1409,-4.1412,-4.1415,-4.1539,0,-4.0409,-4.0574,-4.0611,-4.0754,-4.0836,-4.0852,-4.0934,-4.1003,-4.1044,-4.1121,-4.1168,-4.1254,-4.1235,-4.1268,-4.1331,-4.138,-4.1455,-4.1373,-4.148,-4.1484,-4.1453,-4.1593,-4.1599,-4.1712,-4.1556,-4.1559,-4.1561,0,-4.0562,-4.0642,-4.0792,-4.0881,-4.0917,-4.0989,-4.108,-4.1154,-4.1234,-4.126,-4.1324,-4.1342,-4.1442,-4.1401,-4.1538,-4.1481,-4.1529,-4.1561,-4.1567,-4.1573,-4.1523,-4.1599,-4.1749,-4.1764,-4.1587,-4.1585,-4.1583,0,-4.0623,-4.077,-4.0878,-4.092,-4.1026,-4.1077,-4.1124,-4.1201,-4.1256,-4.1337,-4.1374,-4.1466,-4.1515,-4.1586,-4.1629,-4.1596,-4.1763,-4.1725,-4.1785,-4.1784,-4.1814,-4.1811,-4.1969,-4.1854,-4.1854,-4.1854,-4.1853,0,-4.0743,-4.0834,-4.0907,-4.0973,-4.1077,-4.1121,-4.1222,-4.1269,-4.1339,-4.1415,-4.1437,-4.1508,-4.1563,-4.1643,-4.1679,-4.1786,-4.1809,-4.1832,-4.1839,-4.1827,-4.1823,-4.1854,-4.1845,-4.1858,-4.1857,-4.1856,-4.1855,0,-4.0825,-4.0879,-4.0998,-4.1091,-4.1117,-4.1188,-4.1268,-4.1334,-4.1378,-4.1475,-4.1501,-4.157,-4.1665,-4.1717,-4.1836,-4.186,-4.1979,-4.1985,-4.1951,-4.1953,-4.2009,-4.2001,-4.2188,-4.2214,-4.2086,-4.2087,-4.2088,0,-4.0895,-4.0965,-4.1067,-4.112,-4.1168,-4.1253,-4.1311,-4.136,-4.1419,-4.1518,-4.1571,-4.1669,-4.1747,-4.19,-4.196,-4.2053,-4.2058,-4.2117,-4.2071,-4.2057,-4.2054,-4.2047,-4.2053,-4.2123,-4.2124,-4.2125,-4.2126,0,-4.1013,-4.1037,-4.1118,-4.1211,-4.1279,-4.1354,-4.1428,-4.1471,-4.1532,-4.1598,-4.1696,-4.1758,-4.1881,-4.1976,-4.2074,-4.2123,-4.2134,-4.2141,-4.2159,-4.2144,-4.212,-4.213,-4.1968,-4.2135,-4.2134,-4.2133,-4.2133,-4.2132,-4.1088,-4.1151,-4.1233,-4.1324,-4.1386,-4.1456,-4.1522,-4.1577,-4.1659,-4.1762,-4.1788,-4.1891,-4.1973,-4.2105,-4.2158,-4.2239,-4.2228,-4.2255,-4.2261,-4.2265,-4.2265,-4.2112,-4.2258,-4.2258,-4.2258,-4.2258,-4.2258,0,-4.1203,-4.1258,-4.1342,-4.1445,-4.1518,-4.1526,-4.161,-4.1669,-4.1759,-4.1835,-4.1914,-4.2027,-4.2121,-4.2192,-4.2288,-4.234,-4.2348,-4.2363,-4.2357,-4.2368,-4.2272,-4.2245,-4.2356,-4.2356,-4.2356,-4.2355,-4.2355,-4.2355,-4.127,-4.1378,-4.1413,-4.1552,-4.1607,-4.1707,-4.1755,-4.182,-4.188,-4.2006,-4.2084,-4.2131,-4.2205,-4.2308,-4.2394,-4.2413,-4.2446,-4.246,-4.2478,-4.2386,-4.2375,-4.2365,-4.2339,-4.2468,-4.2468,-4.2567,-4.2568,-4.2569]},{"header":{"parameterUnit":"m.s-1","parameterCategory":1,"la1":30.2991,"la2":30.254,"lo1":-89.0895,"lo2":-89.0444,"dy":0.0017,"dx":0.0017,"nx":28,"ny":28,"refTime":"2024-08-30T03:00:00:Z","depth":0,"parameterNumber":3,"parameterNumberName":"V-component_of_WINDS"},"data":[0,0,0,0,0,0,0,0,0,0,0,0,0,0,0,0,0,0,0,0,0,0,0,0,0,0,0,0,0,0,0,0,0,0,0,0,0,0,0,0,0,0,0,0,0,0,0,0,0,0,0,0,0,0,0,0,0,0,2.769,2.769,0,2.7683,2.7683,2.7683,2.7567,2.7564,2.7561,2.7558,2.7558,2.756,2.7563,0,0,0,0,0,0,0,0,0,0,0,0,0,2.7609,2.7611,2.769,2.769,2.769,2.7683,2.7683,2.7683,2.7567,2.7563,2.756,2.7556,2.7557,2.756,2.7563,0,0,0,0,0,0,0,0,0,0,0,0,0,2.7628,2.7612,2.769,2.7631,2.7626,2.7683,2.7683,2.7683,2.7568,2.7563,2.7559,2.7555,2.7556,2.756,2.7564,2.7679,0,0,2.7577,2.7578,0,0,0,0,0,0,0,0,2.7627,2.7631,2.764,2.7635,2.7629,2.7621,2.7654,2.7682,2.7569,2.759,2.7558,2.7552,2.7583,2.7584,2.7593,2.7679,2.7679,2.7577,2.758,2.7581,2.7582,0,0,0,0,0,0,0,2.7626,2.763,2.7687,2.764,2.7634,2.7607,2.7605,2.7659,2.7612,2.7588,2.7579,2.758,2.7579,2.759,2.7592,2.7679,2.7577,2.7581,2.7583,2.7585,2.7857,2.7862,0,0,0,0,0,0,2.7632,2.763,2.7688,2.7687,2.7617,2.7612,2.7609,2.7628,2.7611,2.7604,2.7584,2.7574,2.7585,2.7588,2.7592,2.7723,2.7581,2.7585,2.7588,2.7852,2.7858,2.7863,0,0,0,0,0,0,2.763,2.7638,2.7688,2.7656,2.7661,2.7618,2.764,2.7631,2.764,2.7607,2.7599,2.7602,2.7581,2.7586,2.7657,2.7722,2.7587,2.7591,2.7847,2.7854,2.7861,2.799,0,0,0,0,0,0,2.7628,2.7638,2.768,2.7658,2.7663,2.7752,2.7644,2.7634,2.7647,2.7635,2.7623,2.7617,2.7578,2.7652,2.7661,2.7725,2.7594,2.7841,2.785,2.7858,2.7979,2.8,2.8018,0,0,0,0,0,2.7626,2.7719,2.7683,2.7691,2.7714,2.7756,2.7759,2.771,2.7653,2.7695,2.7674,2.7617,2.7714,2.766,2.767,2.7736,2.7837,2.7848,2.7858,2.7971,2.7996,2.8018,0,0,0,0,0,0,2.7753,2.7715,2.7675,2.7763,2.7763,2.7736,2.7789,2.7739,2.7758,2.7746,2.7687,2.7686,2.7766,2.7758,2.7699,2.7846,2.7765,2.7778,2.7847,2.7871,2.789,2.789,2.7598,0,0,0,0,0,2.7791,2.7826,2.7792,2.7873,2.7875,2.7832,2.7849,2.7811,2.781,2.781,2.7794,2.7797,2.7827,2.7849,2.7876,2.7978,2.7973,2.8028,2.8048,2.8064,2.8076,2.8127,2.8151,2.7898,2.7898,2.7898,0,0,2.7871,2.7854,2.788,2.7898,2.7894,2.7933,2.7833,2.7879,2.7908,2.7818,2.7883,2.7871,2.7871,2.7957,2.7995,2.7954,2.8144,2.8077,2.8091,2.8094,2.8141,2.8165,2.8186,2.7905,2.7904,2.7903,0,0,2.8034,2.8026,2.8091,2.8088,2.8082,2.8052,2.8068,2.8048,2.8036,2.81,2.8032,2.8067,2.8122,2.8123,2.8131,2.8294,2.8242,2.8304,2.8405,2.8456,2.8476,2.8493,2.855,2.8571,2.8317,2.8317,2.8317,0,2.8135,2.8188,2.8132,2.8181,2.8191,2.8108,2.8174,2.8175,2.8179,2.8189,2.8142,2.8206,2.8201,2.8285,2.8324,2.8335,2.8351,2.8305,2.8477,2.8494,2.851,2.8563,2.8584,2.8324,2.8324,2.8323,2.8322,0,2.8311,2.8349,2.8403,2.8405,2.8421,2.8479,2.8433,2.8456,2.8417,2.8393,2.8458,2.8448,2.847,2.8487,2.8451,2.8567,2.8541,2.8487,2.8405,2.8542,2.8591,2.8611,2.8335,2.8332,2.833,2.8328,0,0,2.8555,2.8523,2.8544,2.8543,2.8529,2.8558,2.8613,2.8631,2.8652,2.8658,2.8701,2.8748,2.8697,2.8706,2.867,2.8715,2.8842,2.8654,2.8653,2.8688,2.8967,2.9007,2.9031,2.8807,2.8811,2.8814,2.8966,0,2.8712,2.8799,2.8749,2.8845,2.8879,2.8801,2.8848,2.8845,2.8824,2.8852,2.8829,2.8862,2.8793,2.8798,2.8839,2.8818,2.8897,2.8806,2.8848,2.885,2.8849,2.9057,2.9099,2.9244,2.8985,2.8988,2.8991,0,2.8906,2.8916,2.9014,2.8991,2.9004,2.9047,2.9058,2.9085,2.9081,2.9062,2.9072,2.9023,2.9076,2.8995,2.9066,2.9006,2.902,2.9013,2.9017,2.9018,2.8928,2.9063,2.9289,2.931,2.9021,2.9018,2.9016,0,2.9072,2.9111,2.9173,2.9175,2.9151,2.9182,2.9174,2.9165,2.9179,2.919,2.9198,2.9217,2.9228,2.9244,2.9202,2.9147,2.9279,2.9195,2.9266,2.9267,2.9296,2.9295,2.9527,2.9308,2.9308,2.9307,2.9307,0,2.9251,2.9314,2.9247,2.9286,2.9353,2.9296,2.9366,2.935,2.9342,2.9377,2.9312,2.9347,2.929,2.9319,2.9288,2.9351,2.9357,2.9344,2.9334,2.9349,2.935,2.9357,2.9345,2.9313,2.9312,2.9311,2.931,0,2.9448,2.9406,2.9468,2.9439,2.9433,2.9484,2.946,2.9495,2.9469,2.9514,2.9521,2.9481,2.9512,2.9472,2.9501,2.9479,2.9565,2.9541,2.9565,2.9558,2.963,2.9624,2.9874,2.9903,2.9667,2.9669,2.9671,0,2.9564,2.961,2.9584,2.9601,2.9596,2.9626,2.9638,2.9584,2.96,2.9597,2.9633,2.9658,2.9674,2.9728,2.9702,2.9724,2.9699,2.9785,2.9702,2.9715,2.9699,2.9696,2.97,2.9802,2.9805,2.9807,2.9809,0,2.9775,2.9751,2.977,2.9782,2.9798,2.9805,2.9808,2.9827,2.977,2.9791,2.982,2.9833,2.986,2.9886,2.9899,2.9893,2.9842,2.9835,2.9853,2.9868,2.9879,2.9872,2.961,2.983,2.9828,2.9826,2.9825,2.9824,2.9934,2.997,2.9957,2.998,2.9975,2.9979,3.001,2.9986,3.0008,3.0024,2.9991,3.0028,3.0022,3.0034,3.0033,3.0062,3.0026,3.0051,3.0057,3.0064,3.0074,2.9875,3.0065,3.0065,3.0064,3.0063,3.0063,0,3.014,3.0127,3.0148,3.0152,3.0171,3.0118,3.0118,3.0138,3.017,3.0167,3.0184,3.0217,3.0241,3.0217,3.0236,3.0264,3.0242,3.0271,3.0268,3.0267,3.0107,3.0089,3.0289,3.0289,3.0289,3.0289,3.0289,3.0289,3.0249,3.0306,3.0281,3.0336,3.0323,3.0356,3.036,3.0363,3.036,3.0399,3.0417,3.04,3.0389,3.0406,3.0426,3.0418,3.0428,3.0466,3.0451,3.0301,3.0279,3.0258,3.0241,3.0469,3.0469,3.0608,3.0609,3.061]}]]